Weather Roundup
Issued by NWS

Home | Current Version | Previous Version | Graphics & Text | Print | Product List | Glossary Off
Versions: 1 2 3 4 5 6 7 8 9 10 11 12 13 14 15 16 17 18 19 20 21 22 23 24 25 26 27 28 29 30 31 32 33 34 35 36 37 38 39 40 41 42 43 44 45 46 47 48 49 50

237
NZUS93 KARX 230959
HRRWXR

CURRENT HOURLY OBSERVATIONS ACROSS
MUCH OF THE UPPER MISSISSIPPI VALLEY
NATIONAL WEATHER SERVICE LA CROSSE WI
500 AM CDT THU MAR 23 2017


...SOUTHEAST MINNESOTA...


CITY           SKY/WX    TMP DP  RH WIND       PRES   REMARKS
ROCHESTER      CLOUDY    34  23  64 SE21      30.21F WCI  22
ROCHESTER/MAYO CLOUDY    35  22  60 SE12G22   30.22F WCI  26
WINONA         CLOUDY    36  25  64 SE12      30.28F WCI  27
AUSTIN         CLOUDY    34  23  64 SE8G16    30.19F WCI  27
ALBERT LEA     CLOUDY    34  23  64 SE17      30.17F WCI  23
DODGE CENTER   CLOUDY    34  25  69 SE16      30.19F WCI  23
PRESTON        CLOUDY    33  20  59 S17G23    30.23F WCI  22
OWATONNA       CLOUDY    36  23  60 SE15G21   30.17F WCI  26
FARIBAULT      CLOUDY    36  25  64 SE13G18   30.17F WCI  27
$$

...ELSEWHERE IN MINNESOTA...


CITY           SKY/WX    TMP DP  RH WIND       PRES   REMARKS
MINNEAPOLIS    CLOUDY    37  21  52 SE15      30.19F WCI  28
INTNL FALLS    CLOUDY    32  18  56 S9        30.06F WCI  24
DULUTH         FLURRIES  29  23  78 S12       30.19F WCI  19
RED WING       CLOUDY    37  19  48 SE10      30.23F WCI  30
REDWOOD FALLS  CLOUDY    37  24  59 SE18      30.07F WCI  27
MANKATO        CLOUDY    36  24  62 SE18      30.14F WCI  26
WORTHINGTON    CLOUDY    36  23  59 SE16      30.04F WCI  26
FAIRMONT       CLOUDY    36  23  59 S21       30.10F WCI  25
$$

...SOUTHWEST WISCONSIN...


CITY           SKY/WX    TMP DP  RH WIND       PRES   REMARKS
LA CROSSE      LGT RAIN  37  22  54 SE12      30.30F WCI  29
PRAIRIE DU CHI CLOUDY    35  19  52 SE8       30.32F WCI  29
BOSCOBEL       MOCLDY    33  19  56 VRB5      30.34F WCI  29
LONE ROCK      NOT AVBL
PLATTEVILLE    CLOUDY    32  22  68 SE9       30.34F WCI  24
FORT MC COY    CLOUDY    33  20  59 SE9       30.33F WCI  26
MAUSTON-NEW LI CLOUDY    31  22  68 SE8       30.35S WCI  23
VIROQUA        CLOUDY    31  20  62 SE13      30.29F WCI  22
WIS DELLS      CLOUDY    29  20  67 SE8       30.36F WCI  21
$$

...ELSEWHERE IN WISCONSIN...


CITY           SKY/WX    TMP DP  RH WIND       PRES   REMARKS
MILWAUKEE      MOCLDY    33  24  69 SE7       30.41F WCI  27
MADISON        CLOUDY    29  20  69 SE10      30.37F WCI  20
GREEN BAY      CLOUDY    28  23  81 S5        30.42F WCI  23
EAU CLAIRE     NOT AVBL
BLACK RVR FLS  CLOUDY    33  19  56 SE7       30.32F WCI  27
MEDFORD        CLOUDY    27  20  75 SE12      30.30F WCI  17
WAUSAU         CLOUDY    26  19  74 S10       30.34F WCI  16
WIS RAPIDS     CLOUDY    28  20  71 SE7       30.37F WCI  21
MARSHFIELD     CLOUDY    28  19  69 SE10      30.32F WCI  19
RICE LAKE      CLOUDY    29  27  91 E5        30.28F WCI  24
$$

...NORTHEAST IOWA...


CITY           SKY/WX    TMP DP  RH WIND       PRES   REMARKS
WATERLOO       CLOUDY    36  21  54 SE12      30.24F WCI  28
DUBUQUE        CLOUDY    32  21  64 SE12G21   30.32F WCI  23
DECORAH        CLOUDY    34  21  60 SE13G24   30.25F WCI  25
MASON CITY     CLOUDY    34  23  64 SE15      30.19F WCI  24
CHARLES CITY   CLOUDY    34  21  60 SE15      30.23R WCI  24
OELWEIN        CLOUDY    34  23  64 SE21      30.25F WCI  22
$$

...ELSEWHERE IN IOWA...


CITY           SKY/WX    TMP DP  RH WIND       PRES   REMARKS
DES MOINES     CLOUDY    42  16  34 E12       30.17F
IOWA CITY      CLOUDY    37  23  56 E12       30.30F WCI  29
FORT DODGE     CLOUDY    39  18  41 SE12G20   30.13F WCI  32
MARSHALLTOWN   CLOUDY    37  22  54 SE18      30.19F WCI  27
CEDAR RAPIDS   CLOUDY    35  23  61 SE14      30.26F WCI  26
$$

...NORTHERN ILLINOIS...


CITY           SKY/WX    TMP DP  RH WIND       PRES   REMARKS
CHICAGO-OHARE  CLOUDY    33  19  56 SE14      30.41F WCI  23
CHICAGO-MIDWAY MOCLDY    32  20  61 SE8       30.43S WCI  25
MOLINE         CLOUDY    34  23  64 E9        30.34S WCI  27
ROCKFORD       CLOUDY    33  21  61 SE8       30.41S WCI  26
PEORIA         CLOUDY    35  22  58 SE9       30.35S WCI  28
$$

NOTE: "FAIR" INDICATES FEW OR NO CLOUDS BELOW 12,000 FEET WITH NO
SIGNIFICANT WEATHER AND/OR OBSTRUCTIONS TO VISIBILITY. WIND
SPEEDS ARE IN MILES-PER-HOUR.




USA.gov is the U.S. government's official web portal to all federal, state and local government web resources and services.